Overview Statistics Trail Chart Weather Telemetry Raw packets
 

This is the latest recevied weather packets stored in our database for station/object WX0ABE-13. If no packets are shown the sender has not sent any weather packets the latest 10 day(s).

<< 1 2 3 4 5 6 >>
Time Temp. Humidity Pressure Rain* Wind** Luminosity Snow
1788369288 31.11° C 38% 1016.4 hPa 0 mm - 592 W/m² -
1788368984 31.11° C 37% 1016.4 hPa 0 mm - 585 W/m² -
1788368679 31.11° C 39% 1016.5 hPa 0 mm - 578 W/m² -
1788368375 31.11° C 39% 1016.6 hPa 0 mm - 569 W/m² -
1788368074 30.56° C 39% 1016.4 hPa 0 mm - 558 W/m² -
1788367774 31.11° C 38% 1016.5 hPa 0 mm - 547 W/m² -
1788367470 30.56° C 39% 1016.6 hPa 0 mm - 534 W/m² -
1788367169 30° C 39% 1016.6 hPa 0 mm - 527 W/m² -
1788366864 29.44° C 41% 1016.6 hPa 0 mm - 519 W/m² -
1788366562 28.89° C 43% 1016.6 hPa 0 mm - 507 W/m² -
1788366257 28.33° C 43% 1016.8 hPa 0 mm - 495 W/m² -
1788365957 27.78° C 45% 1016.8 hPa 0 mm - 483 W/m² -
1788365652 26.67° C 47% 1016.8 hPa 0 mm - 470 W/m² -
1788365349 26.67° C 47% 1017.1 hPa 0 mm - 459 W/m² -
1788365044 26.11° C 48% 1016.7 hPa 0 mm - 445 W/m² -
1788364742 26.67° C 48% 1016.7 hPa 0 mm - 422 W/m² -
1788364441 26.67° C 46% 1016.7 hPa 0 mm - 399 W/m² -
1788364136 26.11° C 47% 1016.7 hPa 0 mm - 349 W/m² -
1788363832 25.56° C 49% 1016.7 hPa 0 mm - 144 W/m² -
1788363531 25.56° C 48% 1017 hPa 0 mm - 83 W/m² -
1788363250 24.44° C 51% 1016.8 hPa 0 mm - 141 W/m² -
1788362926 23.89° C 55% 1017 hPa 0 mm - 257 W/m² -
1788362622 22.78° C 58% 1017 hPa 0 mm - 345 W/m² -
1788362317 22.22° C 62% 1017 hPa 0 mm - 326 W/m² -
1788362012 21.67° C 63% 1016.8 hPa 0 mm - 314 W/m² -

* Rain latest hour (hover to see other rain measurements)
** Current wind speed in m/s (hover to see current wind gust speed)